Regional Weather Roundup
Issued by NWS

Home | Current Version | Previous Version | Graphics & Text | Print | Product List | Glossary On
Versions: 1 2 3 4 5 6 7 8 9 10 11 12 13 14 15 16 17 18 19 20 21 22 23 24 25 26 27 28 29 30 31 32 33 34 35 36 37 38 39 40 41 42 43 44 45 46 47 48 49 50
000
ASUS43 KOAX 282102
RWRNE

WEATHER ROUNDUP FOR NEBRASKA
NATIONAL WEATHER SERVICE OMAHA NE
400 PM CDT WED JUN 28 2017

NOTES: SATELLITE DATA IS BEING USED TO AUGMENT CLOUD COVER ABOVE
       12000 FEET.
       "FAIR" INDICATES FEW OR NO CLOUDS BELOW 12,000 FEET WITH NO
       SIGNIFICANT WEATHER AND/OR OBSTRUCTIONS TO VISIBILITY.

  * THESE STATIONS DO NOT REPORT WEATHER SUCH AS RAIN...SNOW OR FOG.

NEZ001>004-019>022-054>056-282200-
NEBRASKA PANHANDLE

CITY           SKY/WX    TMP DP  RH WIND       PRES   REMARKS
SCOTTSBLUFF    SUNNY     86  50  28 E10       29.77F
ALLIANCE       SUNNY     83  48  29 N6        29.79F
CHADRON        SUNNY     84  43  23 VRB5      29.75F
GORDON         FAIR      80  47  30 NE5       29.79F
KIMBALL        MOSUNNY   84  39  20 CALM      29.84S
SIDNEY         SUNNY     88  39  17 VRB5      29.81F
$$

NEZ057>060-069>072-079>082-282200-
SOUTHWEST NEBRASKA

CITY           SKY/WX    TMP DP  RH WIND       PRES   REMARKS
NORTH PLATTE   SUNNY     90  50  25 CALM      29.75F
IMPERIAL       MOSUNNY   91  40  16 VRB5      29.78F
LEXINGTON      SUNNY     88  54  31 W5        29.75S
MCCOOK         SUNNY     92  47  21 MISG      29.74F
OGALLALA       SUNNY     88  44  21 CALM      29.78F
$$

NEZ005>010-023>029-035>040-094-282200-
NORTH CENTRAL NEBRASKA

CITY           SKY/WX    TMP DP  RH WIND       PRES   REMARKS
VALENTINE      MOSUNNY   89  45  21 NW12G23   29.74S
AINSWORTH      MOSUNNY   85  52  31 NW7G17    29.74S
BROKEN BOW     SUNNY     89  54  30 MISG      29.74S
O`NEILL        SUNNY     87  57  35 W10G20    29.71R
ORD            SUNNY     89  52  28 NW14      29.70S
THEDFORD       SUNNY     88  51  27 NW6G20    29.77S
$$

NEZ041-046>049-061>064-073>077-083>087-282200-
SOUTH CENTRAL NEBRASKA

CITY           SKY/WX    TMP DP  RH WIND       PRES   REMARKS
GRAND ISLAND   SUNNY     88  61  40 W8        29.72S
AURORA         SUNNY     86  63  45 W5        29.72R
HASTINGS       SUNNY     89  59  36 NW8       29.74R
HEBRON         MOSUNNY   94  65  38 W9G16     29.69S HX  96
HOLDREGE       SUNNY     86  52  30 CALM      29.75S
KEARNEY *      SUNNY     88  57  35 W5        29.74S
YORK           SUNNY     86  64  48 W9        29.71S
$$

NEZ011>018-030>034-042>045-282200-
NORTHEAST NEBRASKA

CITY           SKY/WX    TMP DP  RH WIND       PRES   REMARKS
NORFOLK        SUNNY     88  62  41 NW10G16   29.65S
ALBION         MOSUNNY   89  59  36 W8        29.70R
BLAIR          PTSUNNY   88  67  48 W15G23    29.67S HX  91
FREMONT        SUNNY     88  66  48 W13       29.67S HX  90
TEKAMAH        MOSUNNY   90  66  45 SW15G24   29.64R HX  92
WAYNE          MOSUNNY   87  64  45 W14       29.66S
$$

NEZ050>053-065>068-078-088>093-282200-
SOUTHEAST NEBRASKA

CITY           SKY/WX    TMP DP  RH WIND       PRES   REMARKS
LINCOLN        MOSUNNY   91  70  49 W13       29.68R HX  96
OMAHA EPPLEY   PTSUNNY   90  69  50 SW14      29.65S HX  94
BEATRICE       MOSUNNY   92  71  50 SW16G22   29.68S HX  98
FALLS CITY     PTSUNNY   89  70  53 SW24G30   29.68F HX  94
NEBRASKA CITY  PTSUNNY   88  75  65 SW20G31   29.66F HX  97
PLATTSMOUTH    CLOUDY    88  73  60 W10       29.67S HX  94
$$

NEZ044-045-051>053-067-282200-
OMAHA AREA

CITY           SKY/WX    TMP DP  RH WIND       PRES   REMARKS
OMAHA EPPLEY   PTSUNNY   90  69  50 SW14      29.65S HX  94
BLAIR          PTSUNNY   88  67  48 W15G23    29.67S HX  91
FREMONT        SUNNY     88  66  48 W13       29.67S HX  90
MILLARD        MOSUNNY   91  73  56 W10       29.66S HX  98
OFFUTT AFB     CLOUDY    89  72  57 SW10      29.65F HX  95
PLATTSMOUTH    CLOUDY    88  73  60 W10       29.67S HX  94
WAHOO          FAIR      88  64  45 W14G20    29.67S
$$




USA.gov is the U.S. government's official web portal to all federal, state and local government web resources and services.